DW2380 Paimio FI current weather conditions

sailwx.info

Wind from 360 at 2 knots gusting 6

Air temperature 2.2° C
Dewpoint 1.4° C

Last reported at 2015-Mar-31 04:48 UTC.
Time now 2015-Mar-31 05:25 UTC

Location: N 60°28' E 022°40'.
View on Google Maps.

See reports from other nearby stations

  
Tides and Currents Weather Stations Pressure Air Temp Water Temp Dewpoint Dewpoint Depression Visibility Wind Speed Wind Dir Waves Ship Positions
date/time (UTC)wind fromknots sea level pressurealtimeterstation pressurevisibilityair tempwater tempwave heightnotes
2015-Mar-31 04:48 360 2 gusting 6 2.2
2015-Mar-31 04:32 360 2 gusting 5 2.2
2015-Mar-31 04:17 360 3 gusting 5 2.2
2015-Mar-31 04:02 360 2 gusting 7 2.8
2015-Mar-31 03:47 360 2.8
2015-Mar-31 03:32 360 2.8
2015-Mar-31 03:17 360 2.8
2015-Mar-31 03:02 360 1 gusting 3 2.8
2015-Mar-31 02:47 360 2 gusting 6 2.8
2015-Mar-31 02:32 360 3 gusting 6 2.8
2015-Mar-31 02:17 360 4 gusting 9 2.8
2015-Mar-31 02:02 360 3 gusting 7 2.8
2015-Mar-31 01:47 360 2 gusting 8 2.8
2015-Mar-31 01:32 360 3 gusting 6 2.8
2015-Mar-31 01:17 360 2 gusting 6 2.8
2015-Mar-31 01:02 360 4 gusting 7 2.8
2015-Mar-31 00:47 360 5 gusting 7 2.8
2015-Mar-31 00:32 360 3 gusting 8 2.8
2015-Mar-31 00:17 360 2 gusting 7 2.2
2015-Mar-31 00:02 360 6 gusting 10 2.2
2015-Mar-30 23:47 360 4 gusting 9 2.2
2015-Mar-30 23:32 360 5 gusting 10 2.2
2015-Mar-30 23:17 360 5 gusting 8 2.2
2015-Mar-30 23:02 360 6 gusting 10 2.2
2015-Mar-30 22:47 360 5 gusting 12 1.7
2015-Mar-30 22:32 360 5 gusting 13 1.7
2015-Mar-30 22:17 360 7 gusting 13 1.7
2015-Mar-30 22:01 360 6 gusting 12 1.1
2015-Mar-30 21:46 360 8 gusting 13 1.1
2015-Mar-30 21:31 360 5 gusting 13 1.1
2015-Mar-30 21:16 360 6 gusting 16 0.6
2015-Mar-30 21:01 360 6 gusting 13 0.6
2015-Mar-30 20:46 360 6 gusting 15 0.6
2015-Mar-30 20:31 360 7 gusting 13 0.6
2015-Mar-30 20:16 360 6 gusting 10 0.6
2015-Mar-30 20:01 360 7 gusting 13 0.6
2015-Mar-30 19:46 360 5 gusting 12 0.6
2015-Mar-30 19:31 360 5 gusting 8 0.6
2015-Mar-30 19:16 360 6 gusting 12 0.6
2015-Mar-30 19:01 360 7 gusting 13 0.6
2015-Mar-30 18:46 360 4 gusting 11 0.6
2015-Mar-30 18:31 360 6 gusting 11 0.6
2015-Mar-30 18:16 360 6 gusting 10 0.6
2015-Mar-30 17:59 360 6 gusting 13 0.6
2015-Mar-30 17:44 360 6 gusting 13 0.6
2015-Mar-30 17:29 360 6 gusting 12 0.6
2015-Mar-30 17:14 360 6 gusting 12 0.6
2015-Mar-30 16:59 360 6 gusting 15 0.6
2015-Mar-30 16:43 360 5 gusting 14 0.6
2015-Mar-30 16:28 360 5 gusting 12 0.6
2015-Mar-30 16:13 360 6 gusting 12 0.6
2015-Mar-30 15:58 360 7 gusting 13 0.6
2015-Mar-30 15:43 360 6 gusting 12 0.6
2015-Mar-30 15:28 360 6 gusting 11 1.1
2015-Mar-30 15:13 360 6 gusting 11 1.1
2015-Mar-30 14:57 360 7 gusting 13 1.1
2015-Mar-30 14:42 360 5 gusting 13 1.1
2015-Mar-30 14:27 360 5 gusting 12 1.1
2015-Mar-30 14:12 360 6 gusting 13 1.1
2015-Mar-30 13:57 360 6 gusting 13 1.1
2015-Mar-30 13:42 360 6 gusting 13 1.1
2015-Mar-30 13:27 360 7 gusting 15 1.1
2015-Mar-30 13:11 360 6 gusting 13 1.1
2015-Mar-30 12:56 360 6 gusting 15 1.1
2015-Mar-30 12:41 360 6 gusting 14 1.1
2015-Mar-30 12:26 360 6 gusting 14 1.1
2015-Mar-30 12:11 360 8 gusting 13 1.7
2015-Mar-30 11:56 360 8 gusting 13 1.7
2015-Mar-30 11:41 360 8 gusting 13 1.7
2015-Mar-30 11:26 360 6 gusting 12 1.7
2015-Mar-30 11:11 360 5 gusting 12 1.7
2015-Mar-30 10:56 360 6 gusting 13 1.7
2015-Mar-30 10:41 360 9 gusting 14 1.7
2015-Mar-30 10:24 360 7 gusting 13 1.7
2015-Mar-30 10:09 360 6 gusting 13 1.7
2015-Mar-30 09:54 360 6 gusting 13 1.7
2015-Mar-30 09:39 360 8 gusting 13 1.1
2015-Mar-30 09:24 360 8 gusting 12 1.1
2015-Mar-30 09:09 360 6 gusting 11 1.1
2015-Mar-30 08:53 360 6 gusting 15 1.1
2015-Mar-30 08:38 360 5 gusting 11 1.1
2015-Mar-30 08:23 360 5 gusting 10 1.1
2015-Mar-30 08:08 360 6 gusting 13 1.1
2015-Mar-30 07:53 360 7 gusting 12 1.1
2015-Mar-30 07:38 360 5 gusting 14 1.1
2015-Mar-30 07:22 360 6 gusting 13 1.1
2015-Mar-30 07:07 360 6 gusting 11 1.7
2015-Mar-30 06:52 360 7 gusting 13 1.7
2015-Mar-30 06:37 360 4 gusting 12 1.7
2015-Mar-30 06:22 360 5 gusting 12 1.7
2015-Mar-30 06:07 360 6 gusting 14 2.2
2015-Mar-30 05:51 360 6 gusting 14 2.2
2015-Mar-30 05:36 360 10 gusting 20 2.2
2015-Mar-30 05:21 360 8 gusting 14 2.8
2015-Mar-30 05:06 360 12 gusting 17 2.8
2015-Mar-30 04:51 360 10 gusting 19 2.8
2015-Mar-30 04:36 360 6 gusting 17 2.8
2015-Mar-30 04:21 360 8 gusting 19 2.8
2015-Mar-30 04:06 360 6 gusting 16 2.8
2015-Mar-30 03:51 360 8 gusting 16 3.3
2015-Mar-30 03:36 360 10 gusting 19 3.3
2015-Mar-30 03:21 360 12 gusting 21 3.3
2015-Mar-30 03:05 360 11 gusting 19 3.3
2015-Mar-30 02:50 360 10 gusting 16 3.3
2015-Mar-30 02:35 360 5 gusting 18 3.3
2015-Mar-30 02:20 360 10 gusting 17 3.3
2015-Mar-30 02:05 360 9 gusting 18 3.3
2015-Mar-30 01:50 360 7 gusting 16 3.3
2015-Mar-30 01:35 360 12 gusting 21 3.3
2015-Mar-30 01:20 360 13 gusting 22 3.3
2015-Mar-30 01:05 360 8 gusting 17 3.3
2015-Mar-30 00:50 360 13 gusting 21 3.9
2015-Mar-30 00:35 360 10 gusting 22 3.9
2015-Mar-30 00:19 360 11 gusting 19 3.9
2015-Mar-30 00:04 360 11 gusting 21 3.9
2015-Mar-29 23:49 360 8 gusting 19 3.9
2015-Mar-29 23:34 360 13 gusting 30 3.9
2015-Mar-29 23:19 360 12 gusting 21 3.9
2015-Mar-29 23:04 360 9 gusting 22 3.3
2015-Mar-29 22:49 360 9 gusting 21 3.3
2015-Mar-29 22:34 360 8 gusting 23 3.3
2015-Mar-29 22:19 360 9 gusting 23 3.3
2015-Mar-29 22:04 360 11 gusting 24 3.3
2015-Mar-29 21:49 360 10 gusting 21 3.3
2015-Mar-29 21:34 360 12 gusting 20 3.3
2015-Mar-29 21:19 360 12 gusting 24 3.3
2015-Mar-29 21:04 360 12 gusting 18 3.3
2015-Mar-29 20:49 360 10 gusting 19 3.3
2015-Mar-29 20:34 360 13 gusting 24 3.3
2015-Mar-29 20:18 360 10 gusting 23 2.8
2015-Mar-29 20:03 360 13 gusting 26 2.8
2015-Mar-29 19:48 360 8 gusting 21 2.8
2015-Mar-29 19:33 360 12 gusting 19 2.8
2015-Mar-29 19:18 360 12 gusting 19 2.8
2015-Mar-29 19:03 360 9 gusting 19 2.8
2015-Mar-29 18:47 360 7 gusting 17 2.8
2015-Mar-29 18:32 360 6 gusting 14 2.8
2015-Mar-29 18:17 360 8 gusting 13 2.8
2015-Mar-29 18:02 360 6 gusting 15 3.3
2015-Mar-29 17:47 360 5 gusting 17 3.3
2015-Mar-29 17:32 360 7 gusting 18 3.3
2015-Mar-29 17:17 360 10 gusting 18 3.3
2015-Mar-29 17:01 360 8 gusting 16 2.8
2015-Mar-29 16:46 360 7 gusting 16 2.8
2015-Mar-29 16:31 360 7 gusting 15 2.8
2015-Mar-29 16:16 360 6 gusting 14 2.8
2015-Mar-29 16:01 360 5 gusting 15 2.8
2015-Mar-29 15:46 360 8 gusting 15 2.8
2015-Mar-29 15:31 360 6 gusting 17 3.3
2015-Mar-29 15:16 360 9 gusting 16 3.3
2015-Mar-29 15:01 360 9 gusting 17 3.3
2015-Mar-29 14:46 360 9 gusting 18 3.3
2015-Mar-29 14:29 360 8 gusting 18 3.3
2015-Mar-29 14:14 360 8 gusting 16 3.9
2015-Mar-29 13:59 360 12 gusting 19 3.9
2015-Mar-29 13:44 360 10 gusting 18 3.9
2015-Mar-29 13:29 360 9 gusting 20 4.4
2015-Mar-29 13:14 360 13 gusting 19 3.9
2015-Mar-29 12:59 360 8 gusting 14 4.4
2015-Mar-29 12:43 360 6 gusting 16 3.3
2015-Mar-29 12:28 360 9 gusting 19 3.3
2015-Mar-29 12:13 360 12 gusting 20 3.9
2015-Mar-29 11:58 360 9 gusting 17 2.8
2015-Mar-29 11:43 360 10 gusting 18 2.2
2015-Mar-29 11:27 360 10 gusting 16 2.2
2015-Mar-29 11:12 360 9 gusting 18 2.2
2015-Mar-29 10:57 360 6 gusting 17 2.2
2015-Mar-29 10:42 360 8 gusting 15 2.2
2015-Mar-29 10:27 360 8 gusting 15 2.2
2015-Mar-29 10:12 360 13 gusting 19 2.2
2015-Mar-29 09:57 360 9 gusting 16 2.2
2015-Mar-29 09:41 360 7 gusting 16 2.2
2015-Mar-29 09:26 360 7 gusting 15 2.2
2015-Mar-29 09:11 360 10 gusting 19 2.2
2015-Mar-29 08:56 360 7 gusting 15 2.2
2015-Mar-29 08:41 360 10 gusting 17 2.2
2015-Mar-29 08:26 360 7 gusting 13 2.2
2015-Mar-29 08:11 360 7 gusting 13 2.2
2015-Mar-29 07:56 360 7 gusting 14 2.2
2015-Mar-29 07:41 360 9 gusting 17 1.7
2015-Mar-29 07:26 360 9 gusting 18 1.7
2015-Mar-29 07:11 360 6 gusting 11 1.1
2015-Mar-29 06:54 360 8 gusting 14 1.1
2015-Mar-29 06:39 360 6 gusting 10 0.6
2015-Mar-29 06:24 360 7 gusting 16 0.6
2015-Mar-29 06:09 360 11 gusting 19 0.6
2015-Mar-29 05:54 360 5 gusting 16 1.1
2015-Mar-29 05:39 360 7 gusting 13 1.1
2015-Mar-29 05:24 360 7 gusting 16 1.1
2015-Mar-29 05:09 360 8 gusting 18 1.1